Starlink 31805

operational
NORAD ID: 59745 Int'l Des: 2024-090 Owner: SPXS Country: US Constellation: starlink
LEOCIRCULAR

关于 Starlink 31805

正在加载描述...

实时位置

正在加载3D地球...

即将过境

高度历史

Altitude vs Time

uPlot chart will show altitude changes over time

两行轨道根数

1 59745U 24090R 25258.97280648 .00001032 00000-0 47010-4 0 9993
2 59745 43.0024 89.8443 0000973 282.1688 77.9054 15.27592690 76725
Epoch: Sep 15, 2025 • Age: 16 hours

当前状态

高度 487.1 km
速度 7.62 km/s
星下点 -20.46°S, 156.66°W
发射日期 May 13, 2024
运行时间 1.3 years
类型 internet

技术详情

分类 Payload
质量 730.00 kg
干质量 700.00 kg
总质量 730.00 kg
长度 0.30 m
直径 4.10 m
跨度 29.00 m
形状 Box + pan
制造商 SPXS
平台类型 Starlink V2M
阶段状态 In Orbit
所有者/国家 SPXS/US

大型星座

Loading constellations...